Wind_Speed
22 24 25 24 25 25 21 20 22 24 25 26 25 25 24 25 25 25 24 24 25 25 26 26 27 28 28 29 29 29 30 31 32 32 31 31 32 33 33 33 33 33 33 34 35 36 38 39 41 41 42 42 43 44 45 46 45 44 42 41 41 41 40
22 24 25 25 27 27 23 22 24 26 28 29 28 27 26 26 26 26 26 25 26 26 27 27 28 29 29 30 30 30 31 32 33 33 33 32 33 34 34 34 34 34 34 35 36 37 39 40 42 42 42 43 43 43 44 45 45 44 42 40 40 41 40
21 23 23 25 27 28 25 23 24 27 29 31 30 29 28 28 28 28 27 27 27 27 28 28 29 29 30 31 31 31 31 33 34 34 34 34 34 35 35 36 35 35 36 36 37 38 40 41 43 43 43 44 44 44 44 45 46 45 43 41 40 40 40
20 22 22 23 25 28 26 22 23 27 30 31 31 30 30 30 30 29 28 28 28 28 29 29 30 30 31 32 32 32 32 33 34 35 35 35 35 36 37 37 37 36 37 37 38 39 41 42 43 44 44 45 45 44 45 45 46 46 44 42 40 40 41
21 22 23 22 22 26 25 20 22 27 29 29 30 30 31 31 30 30 29 29 29 29 30 30 31 31 32 33 33 32 33 34 35 35 36 36 37 37 37 38 37 37 38 39 40 40 42 43 45 45 46 46 46 46 46 46 46 46 45 42 41 41 41
22 22 23 22 22 24 22 18 20 24 26 27 27 28 30 31 30 30 30 31 31 31 31 31 31 32 33 33 34 33 33 34 35 36 36 37 38 38 38 38 38 38 39 39 40 42 43 45 46 47 47 48 48 47 48 47 47 47 45 42 40 41 41
21 21 22 23 22 24 21 17 20 24 25 26 26 28 31 31 30 31 32 32 32 32 32 32 32 33 34 34 34 34 34 34 35 36 37 38 38 38 38 39 39 39 40 40 41 42 44 46 47 48 48 49 48 48 49 49 49 48 45 42 41 41 40
20 20 22 23 23 25 22 19 21 25 26 27 27 28 31 32 32 32 33 33 33 34 34 33 33 34 35 35 35 34 34 35 36 37 38 38 39 39 39 39 39 40 41 41 42 43 45 47 48 49 49 49 49 49 49 50 49 48 45 43 41 40 39
20 21 23 24 24 25 23 20 23 26 27 28 28 29 31 32 33 33 34 34 34 35 36 35 34 34 35 36 36 35 35 35 36 38 38 39 39 40 40 40 41 41 41 42 43 45 46 48 49 50 49 49 49 50 50 50 49 47 45 43 41 40 39
22 21 23 24 24 26 25 23 24 26 27 28 28 30 31 32 33 34 35 36 36 36 37 37 37 36 36 37 36 36 35 36 37 39 39 40 40 41 41 42 43 43 43 44 44 46 47 48 49 50 50 49 50 50 50 49 47 46 45 43 42 40 38
24 23 24 25 25 26 26 25 26 27 27 29 29 30 31 32 33 34 34 36 37 38 39 39 39 38 38 38 37 36 37 37 38 39 40 41 41 42 43 43 44 45 46 45 46 47 48 49 49 50 51 50 50 51 49 47 46 45 44 43 41 39 38
25 24 25 26 26 27 27 26 27 28 29 29 30 31 32 32 33 34 34 34 37 41 43 42 40 39 40 39 38 37 37 38 39 40 41 42 42 43 44 45 46 46 47 47 47 48 48 49 49 51 51 51 51 50 47 46 46 45 42 41 39 38 37
25 25 25 26 27 27 28 28 27 28 30 30 30 31 32 33 33 33 34 34 37 41 43 42 40 41 41 40 39 39 38 39 40 41 42 43 43 44 45 45 46 46 46 47 48 48 49 50 50 51 52 51 51 49 46 44 44 43 41 39 37 36 36
25 26 26 27 27 28 28 29 28 29 30 31 31 31 32 33 33 33 34 35 38 41 41 41 42 43 42 41 41 40 39 40 41 42 43 44 45 45 46 46 46 46 46 47 47 48 49 50 51 52 52 51 50 48 46 43 42 42 40 37 36 35 34
27 27 27 28 28 29 30 30 29 30 31 32 32 32 32 34 34 35 35 35 37 40 41 43 44 43 42 41 41 40 40 41 43 44 45 45 46 46 46 46 46 46 46 47 48 48 49 50 51 51 51 50 49 47 44 42 41 40 38 36 34 33 33
28 28 29 29 30 30 31 31 31 31 32 33 33 33 34 35 34 34 34 35 37 41 43 43 43 43 42 41 40 40 41 43 44 45 46 46 46 47 46 46 45 46 46 47 48 49 49 50 50 51 50 49 48 46 43 40 39 38 37 35 34 32 31
29 30 30 31 31 31 32 33 33 33 33 34 34 34 35 35 34 34 35 38 40 42 42 43 42 42 41 40 40 41 42 43 45 45 46 47 47 47 46 46 46 46 46 47 48 49 49 49 50 50 49 48 46 44 41 38 37 36 35 34 32 31 29
30 31 31 32 32 32 33 34 34 33 34 35 35 35 36 35 35 35 37 40 42 41 41 42 42 42 41 41 41 41 42 44 45 46 46 47 48 47 47 47 47 46 47 47 48 48 48 49 49 48 47 46 44 42 39 37 35 34 33 31 30 29 28
30 31 32 32 32 32 33 33 34 33 34 35 35 35 36 35 36 37 38 40 41 41 41 42 42 41 41 41 41 42 43 44 45 46 47 48 48 48 48 48 47 46 47 47 47 48 48 48 48 47 46 44 42 39 37 35 34 33 32 30 29 28 28
30 31 31 31 32 32 32 33 33 33 33 33 33 34 35 35 36 37 39 40 40 40 41 42 41 42 42 41 41 42 44 45 46 47 48 48 48 48 48 47 46 46 47 47 47 47 47 48 47 46 44 42 39 37 36 34 33 32 30 29 28 27 27
29 29 30 30 31 31 31 32 32 32 32 32 33 34 35 35 36 38 39 39 39 39 41 42 42 43 42 41 42 43 45 47 47 48 48 48 47 47 47 46 45 46 46 47 47 47 47 47 46 44 41 39 37 36 35 34 33 30 29 28 27 27 26
27 28 28 28 29 29 29 30 30 30 30 31 32 33 34 35 37 38 38 38 38 39 41 42 43 43 43 42 43 45 46 48 48 48 47 47 47 46 45 44 44 45 46 46 46 46 46 45 43 42 39 37 36 36 35 34 32 29 28 27 26 26 26
27 27 27 27 27 28 28 28 29 29 30 31 32 33 34 35 37 37 37 37 38 40 42 43 43 43 43 43 44 46 47 49 49 48 47 46 46 45 43 43 44 44 45 45 45 45 45 43 41 40 37 35 35 35 34 33 31 28 27 26 25 25 25
27 27 27 27 27 28 28 29 29 30 31 32 33 34 35 35 36 36 37 38 39 41 41 42 44 44 44 45 45 46 48 49 49 48 47 45 45 44 43 43 43 43 44 44 44 44 42 40 39 38 35 34 35 34 32 31 29 26 25 25 24 25 25
29 28 28 28 29 29 30 30 30 31 31 32 34 34 35 35 36 37 38 39 40 41 42 43 44 45 46 46 46 46 47 48 49 48 47 45 44 44 43 42 42 43 43 42 43 42 39 38 37 36 33 33 33 32 30 29 28 26 25 25 24 24 24
31 30 30 31 31 31 31 31 32 32 33 34 34 35 35 36 37 38 38 39 40 41 43 45 45 46 46 46 46 46 46 47 48 49 47 45 44 44 43 42 42 42 41 41 42 41 39 38 37 34 32 31 32 31 29 28 28 28 26 25 24 24 24
32 32 32 33 33 33 33 34 34 34 35 36 36 36 36 37 38 39 40 41 42 42 44 45 46 45 46 46 46 46 46 47 48 49 47 45 43 43 43 42 42 41 41 41 40 40 39 37 35 33 31 30 30 30 29 27 28 29 27 25 24 24 23
34 34 34 34 35 35 35 35 36 37 37 37 37 37 38 39 40 41 42 43 43 44 44 45 45 45 45 46 47 47 47 47 48 48 47 45 43 42 42 42 41 41 41 39 38 38 39 37 34 32 30 30 29 29 29 28 28 29 27 25 24 23 23
34 34 35 35 35 35 36 37 38 38 38 38 38 39 39 40 41 42 43 43 43 44 44 44 44 45 46 46 46 46 46 47 47 48 47 44 42 42 41 41 41 40 40 38 37 38 38 37 34 31 30 30 29 29 29 28 27 27 27 24 23 23 23
35 35 36 34 32 33 36 38 39 39 39 39 39 40 40 41 42 42 42 43 43 43 43 44 44 45 46 46 45 45 44 45 46 46 45 44 42 41 40 40 40 40 39 38 36 36 38 38 34 31 30 30 29 28 29 28 27 27 27 25 23 23 24
35 36 37 36 33 34 38 39 39 39 39 40 40 40 40 41 41 42 42 42 42 42 43 44 45 45 46 46 45 43 44 45 46 45 44 43 42 40 39 40 40 39 40 37 34 36 40 39 36 32 31 31 30 29 28 28 27 27 27 25 23 23 24
36 36 37 36 36 37 39 39 39 40 40 41 40 39 40 40 41 42 43 43 43 43 44 45 46 45 46 46 45 44 45 46 45 43 43 43 41 38 38 39 39 39 39 35 34 37 39 38 35 33 32 32 31 29 27 27 26 26 26 25 24 24 23
37 37 37 37 37 38 39 39 40 41 41 41 39 38 40 41 42 44 45 45 44 46 46 46 46 46 46 46 46 46 46 44 43 42 43 42 39 37 38 39 38 39 37 33 33 37 39 37 35 33 31 31 31 29 28 26 25 26 26 26 25 24 23
37 37 37 37 37 38 39 39 39 40 40 40 39 40 42 44 46 47 47 46 46 48 49 48 47 47 47 47 46 46 45 44 43 43 42 41 39 38 39 39 38 39 37 34 34 37 39 39 36 32 31 31 30 28 28 27 26 26 25 25 25 25 24
36 36 37 37 39 39 39 39 39 40 40 39 40 43 46 47 49 49 48 48 49 50 50 50 48 47 47 48 47 46 45 45 44 42 41 40 40 39 40 40 39 38 37 35 36 37 38 38 35 32 31 31 28 26 28 27 26 25 25 25 26 26 25
35 36 37 39 41 40 40 41 41 41 41 42 45 48 49 50 50 49 49 52 52 52 51 51 50 48 47 47 46 46 46 45 43 41 41 41 40 39 41 41 40 37 36 35 36 36 36 36 34 31 31 31 28 26 27 27 25 25 26 26 26 26 25
36 37 39 41 42 42 42 43 43 42 44 47 50 51 50 50 50 51 53 54 54 53 52 51 50 49 47 47 46 45 45 43 41 41 42 41 40 40 40 40 40 38 36 35 36 35 35 35 34 31 31 32 30 28 27 26 25 25 27 28 28 26 24
38 39 41 43 43 44 45 45 44 44 47 50 51 51 51 52 53 54 55 55 53 52 52 51 50 49 47 46 45 45 44 43 41 41 42 42 40 39 39 40 41 39 37 36 35 35 35 36 34 32 31 32 31 29 28 27 26 26 27 28 27 25 24
Wind_Direction
269 270 271 271 271 270 272 278 283 286 287 288 290 293 294 293 294 297 300 303 306 307 309 310 311 314 316 317 318 320 322 322 321 319 317 315 314 315 315 314 311 310 310 310 311 312 313 314 316 318 320 322 323 322 320 317 314 312 309 306 303 301 299
269 269 272 275 275 274 274 276 280 284 286 287 289 291 292 292 293 295 299 302 304 305 307 309 311 313 315 314 315 317 319 319 319 319 317 315 314 314 315 314 311 310 309 309 309 310 312 314 315 317 319 320 321 321 319 316 313 310 308 305 301 299 297
271 273 275 276 278 278 274 274 278 280 282 284 287 288 290 292 293 294 298 301 302 304 305 307 310 312 313 313 313 314 316 317 318 317 316 315 314 314 314 313 312 309 308 308 308 309 311 312 314 316 318 319 320 320 319 316 312 310 307 304 301 297 295
275 278 279 278 279 279 274 274 277 278 279 283 285 287 289 291 292 294 297 299 300 302 303 305 308 310 312 313 313 313 313 314 315 315 315 314 313 313 313 313 312 310 308 308 308 309 310 312 313 315 317 319 319 319 318 315 312 309 307 304 301 297 293
273 276 279 279 279 278 274 274 278 278 280 282 285 288 289 290 291 293 295 297 298 299 300 303 306 309 312 312 312 311 310 311 313 313 313 313 313 313 314 314 312 310 309 308 309 309 310 312 314 316 318 319 319 319 318 315 312 309 307 304 301 297 292
270 273 276 277 277 277 276 278 281 280 282 284 286 289 288 289 291 292 294 295 296 296 298 301 304 307 310 311 311 309 308 309 311 311 312 312 313 314 314 314 313 311 310 309 310 310 311 313 315 317 319 320 320 319 318 315 312 309 307 304 300 295 291
269 270 272 275 277 275 274 279 283 283 284 286 287 288 288 289 291 291 292 293 294 295 296 299 303 305 308 310 309 308 306 308 309 310 311 312 313 315 315 314 314 312 311 310 311 311 312 314 316 318 320 320 319 319 317 315 312 309 307 304 299 295 291
269 272 273 276 278 275 274 282 286 285 286 287 287 287 287 289 290 290 291 292 292 294 296 298 301 303 307 309 308 307 306 307 308 309 310 312 313 315 315 314 314 313 312 312 312 313 314 316 318 319 320 320 319 318 316 314 311 309 307 304 300 296 292
271 273 275 277 279 278 279 285 287 285 286 287 287 286 287 288 290 290 290 291 292 295 296 297 299 303 306 308 307 307 307 307 307 308 309 311 313 315 315 315 315 314 314 313 314 315 316 317 318 319 320 320 319 318 316 313 312 310 307 303 300 298 295
273 273 274 278 281 283 285 287 287 287 287 287 286 286 287 288 289 290 291 293 294 295 295 297 301 304 307 307 307 308 307 307 307 308 309 312 314 316 317 317 316 315 315 315 315 316 317 318 319 320 321 320 319 318 316 313 312 310 306 303 301 299 297
273 274 276 280 281 284 287 288 289 289 289 289 289 288 288 289 290 292 293 294 294 295 296 298 302 306 308 307 308 308 307 306 307 308 310 313 315 317 318 318 318 316 316 316 316 317 318 319 320 320 321 320 318 317 316 314 313 310 306 304 303 300 297
270 272 275 280 282 284 287 288 289 290 289 289 289 289 289 290 290 291 292 291 291 293 297 299 303 307 308 308 308 308 306 306 308 310 312 314 317 319 319 319 317 316 316 316 317 318 319 321 321 321 320 319 318 317 316 314 312 309 305 304 303 300 297
272 274 276 278 281 283 284 285 285 286 286 286 286 287 287 288 289 290 290 289 290 293 297 300 305 308 307 308 308 307 306 307 309 311 313 316 318 319 319 318 317 316 316 316 317 319 320 322 322 320 320 319 318 317 315 313 310 306 304 304 302 300 298
278 279 279 280 281 281 281 282 282 282 283 284 285 287 287 288 289 289 289 289 292 295 297 300 304 306 306 307 308 307 307 308 310 312 314 317 318 319 318 317 315 315 315 316 318 320 321 322 321 320 319 318 317 317 315 313 310 307 305 305 304 301 299
283 282 282 282 283 282 282 282 283 283 284 286 287 289 289 289 290 290 291 292 293 295 296 299 301 303 305 306 306 307 308 309 311 313 315 317 318 317 316 315 314 315 316 317 318 320 321 321 320 319 318 318 318 317 315 313 311 309 308 308 306 303 301
286 285 284 283 282 283 284 285 286 287 287 288 289 289 288 289 291 292 292 292 291 292 295 298 299 302 304 306 307 308 308 309 311 314 315 316 316 315 315 314 315 316 317 318 319 320 321 320 319 318 319 319 318 317 315 314 313 312 311 311 309 306 304
286 285 283 283 283 283 285 286 287 288 287 288 288 288 288 290 292 291 290 290 290 292 295 298 299 302 304 306 307 308 307 309 312 314 314 314 314 314 315 316 316 316 317 318 320 320 320 319 318 319 319 319 318 316 314 313 313 313 313 311 309 308 308
282 281 281 282 282 283 283 284 285 286 286 287 287 288 290 292 291 290 290 290 292 295 297 298 300 303 305 306 307 306 307 309 312 313 313 313 313 314 315 316 316 316 317 318 320 320 319 318 319 319 319 319 318 315 313 312 314 314 313 312 310 309 310
278 277 277 278 279 279 280 282 283 284 285 286 287 288 289 290 291 291 291 291 293 296 297 299 301 303 304 305 305 306 307 310 312 313 313 313 314 315 315 315 315 316 317 318 319 319 318 318 319 319 319 319 317 315 312 313 315 315 314 312 311 311 312
278 277 276 276 277 278 279 281 282 284 285 286 287 286 287 289 289 289 290 291 294 296 297 299 301 302 303 304 305 307 309 311 312 313 313 313 313 314 314 314 314 316 317 317 317 317 317 318 319 320 320 319 317 314 313 313 314 316 315 313 314 316 316
279 279 278 278 278 279 280 281 282 284 285 285 285 285 286 287 287 287 289 292 295 296 297 299 300 301 302 305 307 309 310 311 311 312 312 312 312 313 313 313 314 315 316 316 316 316 317 318 319 320 321 319 316 314 313 312 313 315 314 315 318 320 321
281 281 281 280 280 280 280 281 282 283 284 283 283 284 284 284 285 287 290 293 295 296 297 298 299 301 303 307 309 309 309 309 309 310 311 311 311 311 312 312 313 314 314 314 315 316 317 318 319 321 321 318 316 315 314 313 313 313 313 315 318 321 322
282 282 281 281 280 280 280 281 281 282 283 283 283 283 283 284 286 289 291 293 294 295 296 297 299 301 304 307 308 308 307 307 308 309 310 310 310 310 311 312 312 313 313 313 315 316 317 318 320 321 320 317 316 317 315 312 311 311 310 312 316 319 322
283 282 281 281 281 281 281 282 282 283 284 284 284 284 285 287 289 290 291 293 293 295 296 298 299 302 304 306 306 306 306 306 307 308 309 309 309 310 310 311 311 311 312 313 315 316 317 318 319 320 318 316 316 316 313 310 310 310 309 310 314 318 319
286 285 285 284 285 285 285 285 286 286 286 286 286 288 289 290 290 291 291 292 294 296 297 298 299 302 303 303 303 304 305 305 306 307 308 309 309 310 310 310 310 310 312 313 314 315 316 316 318 318 315 313 314 315 313 309 308 310 311 310 313 316 316
288 288 288 289 290 289 289 289 288 288 288 289 289 290 291 291 291 292 293 293 294 296 297 298 299 301 301 301 302 303 304 305 306 307 308 309 309 310 310 309 309 310 311 312 313 314 314 316 317 316 312 310 312 313 312 309 308 308 309 309 311 314 314
288 289 290 290 291 290 290 290 290 290 290 290 291 291 291 291 292 292 293 294 294 295 296 297 298 299 299 300 302 304 304 304 305 306 307 309 309 309 309 309 309 310 310 311 312 313 314 315 316 314 310 308 310 310 310 309 307 305 304 305 308 311 313
287 288 289 290 290 290 290 290 290 290 290 290 290 290 291 291 292 292 293 294 294 294 295 296 296 297 299 301 302 303 303 303 304 305 307 309 308 307 308 308 309 310 310 310 311 312 313 315 315 313 309 307 308 308 307 306 304 301 301 303 306 309 311
286 288 289 289 289 289 289 289 289 289 289 289 289 289 290 290 290 291 292 293 293 293 294 295 296 298 299 301 301 301 302 303 304 305 307 307 306 306 307 307 307 309 310 309 309 310 313 314 314 312 309 306 306 305 303 302 301 299 301 302 303 305 308
287 288 289 289 287 285 286 288 289 289 289 289 289 289 289 289 290 290 291 292 292 293 295 296 298 299 299 300 300 301 301 302 303 304 306 305 305 305 305 305 306 308 309 307 306 308 311 312 312 311 307 304 304 302 299 299 299 299 301 303 303 303 305
287 288 288 287 285 284 285 288 288 289 289 288 288 288 287 288 289 290 292 293 294 295 297 298 299 299 299 300 301 301 302 302 303 304 304 304 303 303 304 304 305 306 307 306 304 305 309 311 312 310 305 302 301 299 295 295 297 298 300 302 303 303 304
287 287 287 287 287 286 286 287 288 287 287 286 286 286 286 288 291 293 295 296 296 297 298 299 299 299 299 300 301 302 302 302 303 303 303 302 302 301 301 302 302 303 304 303 300 301 306 309 308 305 301 300 300 297 293 292 294 295 298 301 302 303 305
288 289 289 289 288 286 286 287 287 286 286 285 285 286 288 291 294 296 296 296 296 297 298 299 299 299 299 299 300 300 301 302 302 301 301 300 300 299 298 299 299 300 301 298 295 297 302 304 303 300 296 296 298 296 292 292 293 293 295 299 302 304 306
289 289 289 288 286 285 285 285 285 285 283 282 284 287 291 293 296 296 295 294 295 297 299 299 299 299 298 298 299 300 301 301 300 300 299 298 296 295 296 297 297 298 298 295 293 295 298 300 301 298 293 294 297 295 292 292 293 293 294 297 301 303 306
286 286 287 284 283 284 285 285 287 286 282 280 283 288 291 293 295 295 294 294 296 298 299 299 298 298 298 298 298 299 300 300 299 298 296 295 295 295 295 296 296 295 295 294 294 294 296 298 299 296 291 291 295 293 291 291 293 293 294 297 300 302 303
282 283 284 282 283 285 285 286 287 284 280 280 285 290 292 293 293 293 294 296 297 298 298 298 297 297 297 297 297 297 296 297 296 294 293 293 293 293 293 294 294 293 292 292 292 293 295 296 296 294 289 288 289 289 289 290 292 294 296 298 299 300 300
280 280 279 278 281 283 283 283 283 280 279 282 287 290 291 291 291 291 293 295 296 297 297 297 296 296 295 295 295 294 294 294 293 291 291 291 291 291 291 292 292 291 290 290 290 293 294 294 294 291 287 285 285 285 285 287 290 293 296 297 297 296 297
277 276 276 277 280 281 280 280 280 281 283 285 287 289 289 290 291 292 293 293 294 296 296 295 295 294 294 293 292 291 291 291 289 288 289 290 290 290 290 290 290 289 288 288 290 292 293 293 293 291 286 282 282 281 281 282 287 292 294 294 293 293 294
Height
5914 5913 5912 5913 5914 5915 5914 5912 5912 5912 5912 5912 5913 5913 5912 5912 5911 5910 5910 5909 5908 5907 5906 5905 5903 5902 5900 5899 5897 5896 5894 5892 5891 5889 5887 5885 5883 5881 5880 5878 5876 5874 5872 5870 5867 5865 5863 5860 5858 5856 5853 5851 5848 5845 5842 5839 5835 5833 5830 5828 5825 5822 5821
5911 5911 5909 5908 5909 5911 5911 5909 5909 5910 5909 5909 5910 5910 5910 5909 5908 5908 5907 5906 5905 5904 5903 5902 5901 5899 5897 5896 5894 5893 5891 5889 5888 5886 5884 5882 5880 5878 5876 5874 5872 5870 5869 5866 5864 5862 5859 5857 5854 5852 5850 5847 5845 5842 5838 5835 5832 5829 5826 5824 5822 5819 5817
5908 5907 5907 5906 5906 5906 5907 5905 5906 5907 5907 5906 5906 5906 5906 5906 5905 5904 5904 5903 5902 5901 5900 5899 5898 5896 5894 5893 5891 5890 5888 5886 5884 5883 5881 5879 5877 5875 5873 5871 5869 5867 5865 5863 5860 5858 5855 5853 5851 5848 5846 5843 5841 5838 5835 5831 5828 5825 5822 5820 5817 5815 5813
5906 5905 5905 5905 5903 5903 5903 5902 5902 5904 5904 5904 5904 5903 5903 5902 5902 5901 5900 5900 5899 5898 5897 5896 5894 5893 5891 5890 5888 5886 5885 5883 5881 5879 5878 5876 5874 5872 5870 5868 5865 5863 5861 5859 5856 5854 5851 5849 5846 5844 5842 5839 5836 5834 5831 5827 5824 5820 5817 5814 5812 5810 5808
5904 5903 5903 5903 5901 5900 5899 5898 5899 5901 5901 5901 5901 5900 5900 5899 5899 5898 5897 5896 5895 5895 5894 5892 5891 5890 5888 5886 5884 5883 5881 5880 5878 5876 5874 5872 5870 5868 5866 5864 5861 5859 5857 5854 5852 5849 5847 5844 5842 5839 5837 5834 5831 5828 5825 5822 5819 5815 5812 5809 5807 5804 5802
5902 5902 5901 5900 5899 5899 5897 5895 5896 5898 5898 5898 5899 5898 5896 5896 5895 5895 5894 5893 5892 5891 5890 5889 5888 5886 5885 5883 5881 5880 5878 5876 5875 5873 5871 5869 5866 5864 5862 5860 5857 5855 5852 5850 5847 5845 5842 5840 5837 5834 5831 5828 5825 5822 5819 5816 5813 5809 5807 5804 5802 5799 5797
5900 5900 5899 5898 5897 5897 5895 5892 5893 5896 5895 5896 5896 5895 5893 5892 5892 5891 5890 5890 5889 5888 5887 5886 5884 5883 5881 5880 5878 5876 5875 5873 5871 5869 5867 5865 5863 5860 5858 5856 5853 5851 5848 5846 5843 5840 5837 5835 5832 5829 5826 5822 5819 5816 5813 5809 5806 5803 5801 5799 5796 5794 5792
5898 5897 5896 5895 5895 5894 5892 5890 5891 5893 5892 5893 5893 5892 5890 5889 5889 5888 5887 5886 5885 5884 5883 5882 5881 5879 5877 5876 5874 5873 5871 5869 5867 5865 5863 5861 5859 5856 5854 5852 5849 5846 5844 5841 5838 5836 5833 5829 5827 5824 5821 5817 5814 5811 5807 5804 5800 5797 5795 5792 5790 5788 5786
5895 5895 5894 5893 5892 5891 5889 5888 5889 5890 5890 5889 5890 5889 5887 5886 5885 5884 5883 5882 5881 5880 5879 5878 5877 5877 5875 5872 5870 5869 5867 5865 5863 5861 5859 5857 5854 5852 5850 5847 5845 5842 5839 5836 5834 5831 5828 5825 5822 5819 5816 5813 5809 5806 5802 5798 5795 5792 5789 5786 5784 5782 5781
5892 5892 5891 5890 5889 5888 5887 5886 5886 5887 5887 5886 5886 5885 5884 5883 5882 5880 5879 5878 5877 5876 5875 5874 5873 5872 5871 5868 5866 5864 5863 5861 5859 5857 5855 5852 5850 5848 5845 5842 5840 5837 5835 5832 5829 5826 5823 5820 5817 5813 5811 5808 5804 5801 5797 5793 5789 5787 5783 5780 5778 5776 5774
5889 5889 5888 5887 5887 5886 5885 5884 5884 5884 5884 5883 5882 5882 5880 5879 5878 5877 5876 5875 5873 5871 5871 5870 5868 5867 5866 5864 5862 5860 5859 5857 5855 5853 5850 5848 5846 5843 5840 5838 5835 5832 5829 5827 5824 5821 5818 5815 5812 5808 5805 5802 5799 5795 5792 5787 5784 5781 5778 5775 5772 5771 5768
5886 5886 5886 5885 5884 5883 5882 5882 5881 5880 5880 5879 5879 5878 5877 5876 5875 5874 5873 5872 5870 5868 5866 5865 5864 5863 5861 5859 5858 5856 5855 5853 5850 5848 5846 5844 5841 5839 5836 5833 5830 5827 5824 5821 5818 5815 5812 5809 5806 5803 5799 5797 5793 5790 5787 5784 5780 5776 5773 5770 5767 5766 5764
5883 5883 5882 5882 5881 5880 5879 5879 5879 5877 5876 5876 5875 5875 5874 5873 5871 5870 5869 5868 5867 5865 5863 5861 5860 5858 5857 5855 5853 5852 5850 5848 5846 5844 5841 5839 5837 5834 5832 5829 5826 5823 5820 5817 5813 5810 5807 5803 5800 5797 5794 5791 5787 5784 5782 5779 5776 5772 5769 5766 5763 5761 5759
5879 5879 5879 5878 5877 5877 5876 5875 5875 5874 5873 5872 5872 5871 5870 5869 5868 5867 5866 5865 5863 5861 5859 5858 5856 5854 5853 5851 5850 5848 5846 5844 5842 5839 5837 5834 5832 5830 5827 5824 5821 5818 5815 5812 5809 5806 5802 5798 5795 5791 5788 5785 5781 5778 5776 5773 5770 5767 5763 5761 5759 5757 5755
5875 5875 5874 5874 5873 5873 5872 5871 5871 5871 5869 5868 5868 5868 5866 5865 5864 5863 5862 5861 5860 5858 5856 5855 5853 5851 5849 5848 5846 5844 5841 5839 5837 5835 5832 5830 5827 5825 5822 5820 5817 5814 5811 5808 5805 5801 5798 5794 5790 5787 5783 5780 5776 5773 5770 5768 5765 5761 5758 5756 5754 5752 5751
5871 5871 5870 5870 5869 5868 5867 5867 5866 5866 5865 5864 5864 5863 5862 5861 5860 5859 5858 5857 5856 5854 5852 5851 5849 5847 5845 5844 5842 5840 5837 5835 5833 5830 5827 5825 5823 5820 5818 5815 5812 5809 5806 5803 5799 5796 5793 5790 5786 5782 5778 5774 5771 5768 5765 5763 5760 5757 5754 5752 5750 5748 5746
5868 5867 5866 5866 5865 5865 5863 5863 5862 5862 5861 5860 5859 5859 5858 5857 5857 5856 5855 5854 5852 5850 5849 5847 5845 5843 5841 5840 5838 5836 5833 5831 5828 5826 5823 5820 5818 5815 5813 5810 5807 5804 5801 5798 5794 5791 5788 5785 5781 5778 5774 5770 5766 5763 5761 5759 5756 5753 5751 5748 5746 5744 5743
5864 5863 5863 5862 5862 5861 5860 5859 5859 5858 5857 5856 5855 5855 5854 5853 5853 5852 5851 5849 5847 5846 5844 5842 5840 5839 5837 5836 5834 5832 5829 5826 5824 5821 5818 5816 5813 5810 5807 5804 5801 5799 5796 5793 5789 5786 5783 5780 5777 5773 5769 5766 5762 5759 5756 5754 5752 5750 5747 5745 5743 5742 5740
5860 5860 5859 5859 5858 5858 5857 5856 5855 5854 5853 5852 5851 5851 5850 5849 5849 5848 5846 5844 5843 5841 5840 5838 5836 5835 5833 5832 5830 5827 5825 5822 5819 5817 5814 5811 5808 5805 5802 5799 5796 5794 5791 5788 5785 5782 5779 5776 5772 5769 5765 5762 5758 5755 5753 5750 5748 5746 5744 5742 5740 5739 5737
5856 5856 5856 5855 5855 5854 5853 5852 5851 5850 5849 5848 5848 5847 5845 5845 5845 5843 5841 5840 5839 5837 5835 5834 5833 5831 5829 5828 5826 5823 5820 5817 5815 5812 5809 5806 5803 5800 5797 5794 5792 5789 5786 5783 5780 5778 5775 5771 5768 5765 5761 5758 5755 5752 5749 5747 5745 5743 5741 5739 5737 5735 5733
5852 5852 5852 5851 5851 5850 5849 5848 5847 5846 5845 5845 5844 5842 5842 5841 5840 5838 5837 5836 5835 5834 5831 5830 5828 5827 5825 5823 5821 5818 5815 5812 5810 5808 5805 5802 5799 5796 5793 5790 5787 5784 5781 5778 5776 5773 5770 5767 5764 5761 5758 5754 5751 5749 5746 5744 5741 5739 5737 5735 5734 5732 5730
5848 5848 5848 5848 5847 5846 5846 5845 5844 5843 5842 5841 5840 5839 5838 5837 5835 5834 5833 5832 5831 5830 5828 5826 5824 5822 5820 5818 5816 5813 5810 5808 5806 5804 5801 5797 5794 5791 5788 5785 5782 5779 5777 5774 5772 5769 5766 5762 5759 5756 5754 5751 5748 5746 5743 5740 5738 5736 5734 5732 5731 5729 5727
5845 5845 5844 5844 5843 5843 5842 5841 5840 5839 5838 5837 5836 5835 5834 5833 5831 5830 5829 5828 5827 5825 5823 5821 5819 5817 5815 5814 5812 5809 5806 5804 5801 5799 5796 5793 5789 5786 5783 5780 5777 5775 5772 5770 5767 5764 5761 5758 5755 5753 5750 5747 5745 5742 5739 5737 5735 5733 5731 5730 5728 5726 5724
5841 5841 5841 5840 5840 5839 5838 5837 5836 5835 5834 5833 5832 5831 5830 5829 5828 5826 5825 5824 5822 5821 5819 5817 5814 5812 5811 5809 5807 5804 5802 5799 5796 5794 5791 5788 5785 5782 5779 5776 5773 5770 5768 5766 5763 5760 5757 5754 5751 5749 5747 5744 5741 5739 5736 5734 5731 5730 5728 5727 5725 5723 5721
5837 5837 5837 5836 5835 5834 5833 5833 5832 5831 5830 5829 5828 5827 5825 5824 5823 5822 5821 5819 5817 5816 5814 5812 5810 5808 5807 5805 5803 5800 5797 5794 5791 5788 5786 5783 5780 5777 5774 5771 5768 5766 5763 5761 5759 5756 5754 5751 5748 5746 5743 5741 5738 5735 5733 5731 5728 5726 5725 5724 5723 5721 5719
5832 5832 5832 5831 5831 5830 5829 5828 5827 5826 5825 5824 5823 5822 5821 5820 5819 5818 5816 5815 5813 5811 5809 5807 5806 5804 5802 5800 5798 5796 5792 5789 5786 5783 5780 5778 5775 5772 5769 5766 5764 5761 5759 5757 5755 5752 5750 5747 5745 5743 5740 5738 5735 5733 5730 5728 5725 5723 5722 5721 5720 5718 5717
5828 5828 5827 5826 5826 5825 5824 5823 5822 5821 5820 5819 5819 5818 5817 5816 5814 5813 5811 5810 5808 5806 5804 5802 5801 5799 5797 5795 5792 5790 5787 5784 5781 5778 5775 5773 5770 5767 5764 5762 5760 5757 5755 5753 5750 5747 5745 5743 5741 5739 5737 5735 5733 5730 5728 5726 5723 5721 5720 5719 5717 5716 5714
5823 5823 5822 5822 5821 5820 5819 5818 5817 5816 5816 5815 5814 5813 5812 5811 5809 5808 5806 5804 5803 5801 5799 5797 5795 5794 5792 5790 5787 5785 5782 5779 5776 5773 5770 5768 5765 5762 5760 5757 5756 5754 5751 5748 5745 5743 5741 5738 5737 5735 5733 5731 5729 5727 5725 5723 5721 5719 5717 5716 5715 5713 5711
5818 5818 5817 5817 5816 5815 5814 5813 5812 5811 5811 5810 5809 5808 5807 5806 5804 5802 5801 5799 5797 5795 5794 5792 5790 5788 5786 5784 5782 5779 5776 5774 5771 5768 5766 5763 5761 5758 5756 5753 5751 5750 5746 5743 5740 5738 5736 5734 5733 5732 5730 5728 5726 5724 5722 5720 5718 5716 5714 5714 5712 5710 5708
5813 5813 5812 5812 5811 5810 5808 5808 5807 5806 5805 5804 5804 5803 5801 5800 5799 5797 5796 5794 5792 5790 5789 5787 5785 5783 5781 5778 5776 5774 5771 5768 5766 5763 5761 5759 5756 5754 5752 5749 5747 5745 5743 5740 5737 5734 5732 5731 5730 5728 5726 5725 5723 5722 5719 5717 5714 5712 5711 5710 5709 5707 5706
5808 5808 5807 5807 5807 5805 5804 5802 5802 5801 5800 5799 5798 5797 5796 5795 5794 5792 5791 5789 5787 5785 5783 5781 5779 5778 5775 5773 5770 5768 5765 5763 5761 5759 5756 5754 5752 5750 5747 5745 5743 5741 5739 5736 5733 5731 5729 5727 5726 5725 5723 5721 5720 5719 5717 5714 5712 5709 5707 5707 5706 5704 5703
5803 5803 5802 5802 5802 5800 5798 5798 5797 5795 5795 5794 5793 5792 5791 5790 5788 5787 5785 5783 5781 5779 5778 5776 5774 5772 5770 5767 5764 5762 5760 5758 5756 5754 5751 5749 5747 5745 5744 5742 5739 5737 5734 5733 5730 5729 5727 5725 5723 5722 5720 5717 5716 5715 5713 5712 5710 5707 5704 5703 5703 5701 5699
5797 5797 5796 5796 5796 5795 5793 5792 5792 5790 5789 5788 5788 5787 5785 5783 5782 5781 5779 5777 5776 5774 5772 5771 5768 5766 5764 5762 5759 5757 5755 5753 5751 5748 5747 5744 5742 5741 5740 5738 5735 5732 5730 5728 5726 5725 5724 5722 5720 5718 5716 5714 5712 5711 5709 5708 5706 5704 5702 5700 5699 5698 5697
5791 5791 5791 5790 5790 5789 5788 5787 5786 5785 5784 5783 5782 5781 5779 5777 5776 5774 5773 5772 5770 5768 5766 5765 5762 5760 5758 5756 5754 5751 5749 5747 5745 5743 5741 5739 5738 5737 5735 5733 5730 5727 5725 5723 5722 5720 5719 5717 5715 5714 5712 5710 5708 5707 5705 5703 5702 5701 5699 5698 5696 5695 5693
5785 5785 5785 5784 5783 5782 5782 5781 5780 5779 5778 5777 5776 5775 5774 5773 5771 5769 5767 5765 5764 5762 5759 5758 5756 5754 5752 5750 5748 5746 5744 5742 5740 5738 5736 5734 5732 5731 5728 5726 5724 5723 5720 5718 5717 5715 5713 5711 5710 5709 5707 5705 5704 5703 5701 5699 5699 5697 5696 5695 5693 5692 5690
5780 5779 5779 5778 5777 5777 5776 5775 5774 5773 5773 5772 5770 5769 5768 5767 5766 5764 5761 5759 5758 5756 5753 5751 5749 5748 5746 5744 5742 5741 5739 5738 5735 5732 5730 5729 5727 5725 5723 5720 5719 5717 5716 5714 5712 5710 5709 5707 5705 5704 5702 5701 5700 5699 5697 5696 5695 5694 5693 5691 5690 5689 5687
5775 5774 5773 5773 5772 5771 5770 5769 5769 5768 5767 5766 5765 5764 5763 5761 5759 5758 5756 5753 5751 5749 5747 5745 5743 5741 5740 5738 5736 5735 5734 5732 5730 5727 5725 5724 5723 5721 5719 5715 5713 5711 5710 5709 5707 5705 5704 5702 5700 5699 5698 5696 5696 5695 5694 5692 5692 5691 5689 5688 5686 5685 5684
5769 5768 5767 5767 5766 5765 5765 5764 5763 5762 5761 5760 5759 5758 5756 5754 5753 5751 5749 5747 5745 5742 5740 5738 5736 5734 5733 5732 5730 5729 5727 5726 5724 5723 5720 5719 5717 5716 5713 5710 5707 5705 5704 5703 5702 5700 5698 5696 5695 5695 5693 5692 5691 5691 5690 5689 5688 5687 5686 5684 5683 5682 5681